This is the latest recevied weather packets stored in our database for station/object W5DRO-13. If no packets are shown the sender has not sent any weather packets the latest 10 day(s).
| Time | Temp. | Humidity | Pressure | Rain* | Wind** | Luminosity | Snow |
|---|---|---|---|---|---|---|---|
| 1777614832 | 9.44° C | 82% | 1019.4 hPa | 0 mm | - | - | - |
| 1777614530 | 10° C | 82% | 1019.5 hPa | 0 mm | - | - | - |
| 1777614225 | 10° C | 81% | 1019.4 hPa | 0 mm | - | - | - |
| 1777613920 | 10° C | 80% | 1019.4 hPa | 0 mm | - | - | - |
| 1777613617 | 10.56° C | 80% | 1019.5 hPa | 0 mm | - | - | - |
| 1777613314 | 10.56° C | 79% | 1019.3 hPa | 0 mm | - | - | - |
| 1777613011 | 10.56° C | 79% | 1019.2 hPa | 0 mm | - | - | - |
| 1777612706 | 10.56° C | 78% | 1019.3 hPa | 0 mm | - | - | - |
| 1777612403 | 11.11° C | 78% | 1019.4 hPa | 0 mm | - | - | - |
| 1777612098 | 11.11° C | 77% | 1019.1 hPa | 0 mm | - | - | - |
| 1777611793 | 11.11° C | 78% | 1019.1 hPa | 0 mm | - | - | - |
| 1777611490 | 11.11° C | 79% | 1019.3 hPa | 0 mm | - | - | - |
| 1777611187 | 11.11° C | 77% | 1019.2 hPa | 0 mm | - | - | - |
| 1777610882 | 11.11° C | 77% | 1019.4 hPa | 0 mm | - | - | - |
| 1777610578 | 11.11° C | 78% | 1019.2 hPa | 0 mm | - | - | - |
| 1777610277 | 11.11° C | 77% | 1019 hPa | 0 mm | - | - | - |
| 1777609975 | 11.67° C | 76% | 1019.1 hPa | 0 mm | - | - | - |
| 1777609670 | 11.67° C | 75% | 1019 hPa | 0 mm | - | - | - |
| 1777609368 | 11.67° C | 73% | 1019.1 hPa | 0 mm | - | - | - |
| 1777609066 | 12.22° C | 73% | 1019.1 hPa | 0 mm | - | - | - |
| 1777608763 | 12.22° C | 71% | 1019.1 hPa | 0 mm | - | - | - |
| 1777608459 | 12.22° C | 72% | 1018.9 hPa | 0 mm | - | - | - |
| 1777608157 | 12.78° C | 68% | 1019 hPa | 0 mm | - | - | - |
| 1777607854 | 12.78° C | 67% | 1019 hPa | 0 mm | - | - | - |
| 1777607549 | 12.22° C | 69% | 1019.1 hPa | 0 mm | - | - | - |
* Rain latest hour (hover to see other rain measurements)
** Current wind speed in m/s (hover to see current wind gust speed)